Погода в Гриффите

Австралия     34°17′12″S   146°02′36″E
темп.,
°C
ветер,
м/с
пор.,
м/с
влажн.,
%
обл.,
%
осадки,
мм/ч
давл.,
гПа
погр.,
м
5 марта, пт
пт523:00+20юз36400 0.0 1011117
02:00+17ю410640 0.0 1011378
05:00+15ююз412740 0.0 1010470
08:00+15юз511760 0.0 1011577
11:00+21ююз68450 0.0 1011940
14:00+26ююз68230 0.0 10091276
17:00+27ююз79200 0.0 10071585
20:00+22ююз511290 0.0 1008372
6 марта, сб
сб623:00+16ююз410450 0.0 1009322
02:00+11ююз35650 0.0 1009121
05:00+9ю23720 0.0 100944
08:00+11ююв12650 0.0 101168
11:00+21св23440 0.0 1012634
14:00+27с23240 0.0 10111503
17:00+30в11170 0.0 10082027
20:00+23юв23240 0.0 100824
7 марта, вс
вс723:00+21ююз11280 0.0 101023
02:00+19юв12320 0.0 101023
05:00+18всв474128 0.0 1010125
08:00+18св411580 0.0 1012388
11:00+26ссв683833 0.0 1012820
14:00+31ссз6723100 0.0 10102366
17:00+31зсз5617100 0.0 10082985
20:00+26зюз3616100 0.0 100897
8 марта, пн
пн823:00+22ююз1218100 0.0 101023
02:00+21св1118100 0.0 100923
05:00+19ююз112171 0.0 101023
08:00+21св122365 0.0 101123
11:00+29сз341450 0.0 1011924
14:00+32зюз772094 0.0 10112950
17:00+31юз572176 0.0 10102626
20:00+26ююз483142 0.0 1011146
9 марта, вт
вт923:00+22ююв234030 0.0 101223
02:00+21всв334478 0.0 101248
05:00+20в235069 0.0 101224
08:00+21св125078 0.0 101432
11:00+28зюз222977 0.0 1015796
14:00+33ююз132399 0.0 10132207
17:00+32ююз3323100 0.0 10112078
20:00+27ююв343268 0.0 101176